Carrollton, GA

9:17 PM EST on November 19, 2019 (GMT -0500)
West Georgia Regional-Gray

Weather History for KCTJ - September, 2019

Change the Weather History Date:

Sunday, September 8, 2019

  Actual Average Record
Temperature  
Mean Temperature 76 °F -  
Max Temperature 91 °F 84 °F 98 °F (1954)
Min Temperature 62 °F 62 °F 48 °F (2017)
Cooling Degree Days 12    
Growing Degree Days 26 (Base 50)    
Moisture  
Dew Point 61 °F    
Average Humidity 63    
Maximum Humidity 93    
Minimum Humidity 31    
Precipitation  
Precipitation 0.00 in - - ()
Sea Level Pressure  
Sea Level Pressure 30.07 in    
Wind  
Wind Speed 1 mph (WNW)    
Max Wind Speed 10 mph    
Max Gust Speed -    
Visibility 10 miles    
Events      
Averages and records for this station are not official NWS values.
T = Trace of Precipitation, MM = Missing Value Source: NWS Daily Summary

Daily Weather History Graph

Daily Weather History Graph

Search for Another Location

Airport or City:

Astronomy

Sep. 08, 2019 Rise Set
Actual Time 7:19 AM EDT 7:56 PM EDT
Civil Twilight 6:53 AM EDT 8:22 PM EDT
Nautical Twilight 6:24 AM EDT 8:51 PM EDT
Astronomical Twilight 5:54 AM EDT 9:21 PM EDT
Moon 4:51 PM EDT (9/8) 2:11 AM EDT (9/8)
Length of Visible Light 13h 28m
Length of Day
12h 37m
Waxing Gibbous, 75% of the Moon is Illuminated
Sep 8
Waxing Gibbous
Sep 14
Full
Sep 21
Last Quarter
Sep 28
New
Oct 5
First Quarter

Hourly Weather History & Observations

Time (EDT) Temp. Heat Index Dew Point Humidity Pressure Visibility Wind Dir Wind Speed Gust Speed Precip Events Conditions
12:15 AM 73.8 °F - 66.4 °F 78% 30.04 in 10.0 mi Calm Calm - N/A   Clear
12:35 AM 71.8 °F - 66.6 °F 84% 30.04 in 10.0 mi Calm Calm - N/A   Clear
12:55 AM 72.9 °F - 63.7 °F 73% 30.04 in 10.0 mi Calm Calm - N/A   Clear
1:15 AM 73.0 °F - 62.4 °F 69% 30.04 in 10.0 mi Calm Calm - N/A   Clear
1:35 AM 73.6 °F - 61.2 °F 65% 30.04 in 10.0 mi Calm Calm - N/A   Clear
1:55 AM 73.6 °F - 60.1 °F 63% 30.05 in 10.0 mi Calm Calm - N/A   Clear
2:15 AM 70.2 °F - 61.5 °F 74% 30.05 in 10.0 mi Calm Calm - N/A   Clear
2:35 AM 68.5 °F - 62.4 °F 81% 30.04 in 10.0 mi Calm Calm - N/A   Clear
2:55 AM 67.5 °F - 62.2 °F 83% 30.04 in 10.0 mi Calm Calm - N/A   Clear
3:15 AM 66.9 °F - 62.1 °F 84% 30.04 in 10.0 mi Calm Calm - N/A   Clear
3:35 AM 66.0 °F - 61.9 °F 86% 30.03 in 10.0 mi Calm Calm - N/A   Clear
3:55 AM 65.3 °F - 61.5 °F 88% 30.03 in 10.0 mi Calm Calm - N/A   Clear
4:15 AM 65.5 °F - 61.0 °F 85% 30.03 in 10.0 mi Calm Calm - N/A   Clear
4:35 AM 65.3 °F - 60.8 °F 85% 30.03 in 10.0 mi Calm Calm - N/A   Clear
4:55 AM 64.9 °F - 60.3 °F 85% 30.03 in 10.0 mi Calm Calm - N/A   Clear
5:15 AM 64.6 °F - 60.1 °F 85% 30.03 in 10.0 mi Calm Calm - N/A   Clear
5:35 AM 64.4 °F - 60.4 °F 87% 30.04 in 10.0 mi Calm Calm - N/A   Clear
5:55 AM 63.1 °F - 60.4 °F 91% 30.05 in 10.0 mi Calm Calm - N/A   Clear
6:15 AM 62.6 °F - 60.4 °F 93% 30.05 in 10.0 mi Calm Calm - N/A   Scattered Clouds
6:35 AM 62.8 °F - 60.3 °F 91% 30.05 in 10.0 mi Calm Calm - N/A   Scattered Clouds
6:55 AM 63.0 °F - 59.9 °F 90% 30.06 in 10.0 mi Calm Calm - N/A   Clear
7:15 AM 62.6 °F - 59.9 °F 91% 30.07 in 10.0 mi Calm Calm - N/A   Clear
7:35 AM 62.4 °F - 59.9 °F 91% 30.08 in 10.0 mi Calm Calm - N/A   Clear
7:55 AM 62.6 °F - 60.4 °F 93% 30.08 in 10.0 mi Calm Calm - N/A   Clear
8:15 AM 64.2 °F - 61.3 °F 90% 30.09 in 10.0 mi Calm Calm - N/A   Scattered Clouds
8:35 AM 66.9 °F - 62.2 °F 85% 30.10 in 10.0 mi Calm Calm - N/A   Clear
8:55 AM 69.3 °F - 62.6 °F 79% 30.10 in 10.0 mi Calm Calm - N/A   Clear
9:15 AM 71.6 °F - 62.1 °F 72% 30.11 in 10.0 mi Calm Calm - N/A   Clear
9:35 AM 74.8 °F - 62.6 °F 66% 30.11 in 10.0 mi Calm Calm - N/A   Clear
9:55 AM 77.5 °F - 62.8 °F 60% 30.11 in 10.0 mi Calm Calm - N/A   Clear
10:15 AM 79.5 °F - 62.6 °F 56% 30.11 in 10.0 mi Calm Calm - N/A   Clear
10:35 AM 81.0 °F 81.8 °F 61.5 °F 51% 30.11 in 10.0 mi Calm Calm - N/A   Clear
10:55 AM 81.9 °F 82.3 °F 60.4 °F 48% 30.11 in 10.0 mi Calm Calm - N/A   Clear
11:15 AM 82.9 °F 83.5 °F 61.3 °F 48% 30.10 in 10.0 mi Calm Calm - N/A   Clear
11:35 AM 84.2 °F 84.2 °F 59.9 °F 44% 30.10 in 10.0 mi Calm Calm - N/A   Clear
11:55 AM 84.9 °F 84.6 °F 59.2 °F 42% 30.10 in 10.0 mi Calm Calm - N/A   Clear
12:15 PM 85.5 °F 85.4 °F 60.6 °F 43% 30.09 in 10.0 mi South 4.6 mph - N/A   Clear
12:35 PM 86.2 °F 86.8 °F 62.4 °F 45% 30.09 in 10.0 mi Calm Calm - N/A   Clear
12:55 PM 86.2 °F 86.8 °F 62.2 °F 45% 30.09 in 10.0 mi Calm Calm - N/A   Clear
1:15 PM 86.9 °F 87.8 °F 63.1 °F 45% 30.08 in 10.0 mi SW 3.5 mph - N/A   Clear
1:35 PM 87.1 °F 88.3 °F 64.2 °F 46% 30.08 in 10.0 mi South 3.5 mph - N/A   Clear
1:55 PM 88.3 °F 89.9 °F 64.8 °F 45% 30.08 in 10.0 mi SW 3.5 mph - N/A   Clear
2:15 PM 88.9 °F 90.0 °F 63.9 °F 43% 30.08 in 10.0 mi West 4.6 mph - N/A   Clear
2:35 PM 89.4 °F 90.8 °F 64.2 °F 43% 30.08 in 10.0 mi North 3.5 mph - N/A   Clear
2:55 PM 90.3 °F 91.9 °F 64.4 °F 42% 30.07 in 10.0 mi NW 10.4 mph - N/A   Scattered Clouds
3:15 PM 90.5 °F 90.7 °F 61.5 °F 38% 30.07 in 10.0 mi WNW 4.6 mph - N/A   Clear
3:35 PM 91.0 °F 90.0 °F 58.1 °F 33% 30.08 in 10.0 mi NW 9.2 mph - N/A   Clear
3:55 PM 91.0 °F 89.4 °F 56.3 °F 31% 30.07 in 10.0 mi NNW 4.6 mph - N/A   Clear
4:15 PM 91.6 °F 90.1 °F 56.8 °F 31% 30.06 in 10.0 mi NW 3.5 mph - N/A   Clear
4:35 PM 91.8 °F 91.2 °F 59.7 °F 34% 30.06 in 10.0 mi West 4.6 mph - N/A   Clear
4:55 PM 91.9 °F 90.8 °F 58.3 °F 32% 30.06 in 10.0 mi Calm Calm - N/A   Clear
5:15 PM 91.8 °F 90.9 °F 59.0 °F 33% 30.05 in 10.0 mi North 4.6 mph - N/A   Clear
5:35 PM 91.6 °F 90.4 °F 58.1 °F 32% 30.05 in 10.0 mi West 3.5 mph - N/A   Clear
5:55 PM 91.6 °F 90.4 °F 57.6 °F 32% 30.05 in 10.0 mi Calm Calm - N/A   Clear
6:15 PM 91.2 °F 90.2 °F 58.6 °F 33% 30.06 in 10.0 mi Calm Calm - N/A   Clear
6:35 PM 90.5 °F 89.8 °F 59.0 °F 35% 30.06 in 10.0 mi Calm Calm - N/A   Clear
6:55 PM 90.0 °F 89.1 °F 59.2 °F 35% 30.06 in 10.0 mi Calm Calm - N/A   Clear
7:15 PM 88.2 °F 87.8 °F 60.6 °F 39% 30.07 in 10.0 mi Calm Calm - N/A   Clear
7:35 PM 83.5 °F 84.7 °F 63.7 °F 51% 30.07 in 10.0 mi Calm Calm - N/A   Clear
7:55 PM 81.5 °F 82.9 °F 64.0 °F 55% 30.08 in 10.0 mi Calm Calm - N/A   Clear
8:15 PM 79.2 °F - 64.0 °F 60% 30.08 in 10.0 mi Calm Calm - N/A   Clear
8:35 PM 77.0 °F - 64.0 °F 64% 30.08 in 10.0 mi Calm Calm - N/A   Clear
8:55 PM 76.6 °F - 63.1 °F 63% 30.09 in 10.0 mi Calm Calm - N/A   Clear
9:15 PM 75.0 °F - 63.5 °F 67% 30.09 in 10.0 mi Calm Calm - N/A   Clear
9:35 PM 73.8 °F - 63.7 °F 71% 30.10 in 10.0 mi Calm Calm - N/A   Clear
9:55 PM 72.3 °F - 63.1 °F 73% 30.10 in 10.0 mi Calm Calm - N/A   Clear
10:15 PM 71.6 °F - 60.8 °F 69% 30.10 in 10.0 mi Calm Calm - N/A   Clear
10:35 PM 70.9 °F - 61.0 °F 71% 30.10 in 10.0 mi Calm Calm - N/A   Clear
10:55 PM 69.1 °F - 62.1 °F 78% 30.10 in 10.0 mi Calm Calm - N/A   Clear
11:15 PM 68.9 °F - 61.7 °F 78% 30.10 in 10.0 mi Calm Calm - N/A   Clear
11:35 PM 69.1 °F - 61.3 °F 76% 30.11 in 10.0 mi Calm Calm - N/A   Clear
11:55 PM 68.7 °F - 60.4 °F 75% 30.11 in 10.0 mi Calm Calm - N/A   Clear